Location: ČR
(50.0000°N, 15.0000°E)
Time: 17:37:56
(UTC+01:00)

Vanguard 3 - All Passes

Search period start: 14 March 2026 00:00
Search period end: 24 March 2026 00:00
Orbit: 507 x 3205 km, 33.4° (Epoch: 13 March)

Date Brightness Start Highest point End Pass type
(mag) Time Alt. Az. Time Alt. Az. Time Alt. Az.
14 Mar - 05:51:30 10° SSE 05:57:08 13° SE 06:03:19 10° ESE daylight
14 Mar - 07:54:35 10° SSW 08:08:00 32° SSE 08:23:42 10° E daylight
14 Mar - 10:04:35 10° WSW 10:21:09 45° S 10:38:04 10° ESE daylight
14 Mar - 12:17:40 10° WSW 12:34:52 42° SSW 12:49:42 10° SE daylight
14 Mar - 14:33:44 10° W 14:47:00 25° SW 14:57:46 10° S daylight
15 Mar - 06:35:06 10° S 06:45:25 22° SE 06:57:52 10° E daylight
15 Mar - 08:42:34 10° SW 08:57:21 40° SSE 09:14:20 10° E daylight
15 Mar - 10:54:01 10° WSW 11:11:01 46° S 11:27:35 10° ESE daylight
15 Mar - 13:08:10 10° W 13:24:18 35° SSW 13:37:55 10° SSE daylight
15 Mar - 15:27:07 10° WSW 15:35:23 15° SW 15:42:36 10° SSW daylight
16 Mar - 05:19:39 10° SE 05:23:42 11° SE 05:28:05 10° ESE visible
16 Mar - 07:21:47 10° SSW 07:34:10 32° SSE 07:49:34 10° E daylight
16 Mar - 09:31:21 10° WSW 09:47:02 45° S 10:04:27 10° ESE daylight
16 Mar - 11:43:55 10° WSW 12:00:49 42° SSW 12:16:37 10° SE daylight
16 Mar - 13:59:26 10° W 14:13:17 26° SW 14:25:04 10° S daylight
17 Mar - 06:02:37 10° S 06:11:51 21° SE 06:23:22 10° E daylight
17 Mar - 08:09:41 10° SW 08:23:23 39° SSE 08:40:21 10° E daylight
17 Mar - 10:20:39 10° WSW 10:36:53 45° S 10:54:06 10° ESE daylight
17 Mar - 12:34:15 10° W 12:50:20 35° SSW 13:04:54 10° SSE daylight
17 Mar - 14:52:32 10° WSW 15:01:48 16° SW 15:10:04 10° SSW daylight
18 Mar - 04:49:49 10° SE 04:50:24 10° SE 04:50:59 10° ESE visible
18 Mar - 06:49:12 10° SSW 07:00:28 30° SSE 07:15:13 10° E daylight
18 Mar - 08:58:21 10° SW 09:12:59 44° S 09:30:35 10° ESE daylight
18 Mar - 11:10:23 10° WSW 11:26:42 42° SSW 11:43:14 10° SE daylight
18 Mar - 13:25:22 10° W 13:39:26 26° SW 13:52:06 10° S daylight
19 Mar - 05:30:22 10° S 05:38:26 19° SE 05:48:41 10° E visible
19 Mar - 07:37:01 10° SW 07:49:33 38° SSE 08:06:07 10° E daylight
19 Mar - 09:47:31 10° WSW 10:02:47 45° S 10:20:22 10° ESE daylight
19 Mar - 12:00:35 10° W 12:16:18 35° SSW 12:31:37 10° SSE daylight
19 Mar - 14:18:13 10° WSW 14:28:06 17° SW 14:37:12 10° SSW daylight
20 Mar - 06:16:49 10° SSW 06:26:56 29° SSE 06:40:43 10° E daylight
20 Mar - 08:25:35 10° SW 08:39:03 43° S 08:56:29 10° ESE daylight
20 Mar - 10:37:07 10° WSW 10:52:36 42° SSW 11:09:36 10° SE daylight
20 Mar - 12:51:32 10° W 13:05:31 26° SW 13:18:52 10° SSE daylight
21 Mar - 04:58:21 10° S 05:05:12 18° SE 05:13:55 10° E visible
21 Mar - 07:04:34 10° SW 07:15:53 37° SSE 07:31:42 10° ESE daylight
21 Mar - 09:14:38 10° WSW 09:28:46 44° S 09:46:23 10° ESE daylight
21 Mar - 11:27:11 10° W 11:42:14 35° SSW 11:58:04 10° SSE daylight
21 Mar - 13:44:12 10° WSW 13:54:18 17° SW 14:04:00 10° SSW daylight
22 Mar - 05:44:38 10° SSW 05:53:34 27° SE 06:06:06 10° E daylight
22 Mar - 07:53:01 10° SW 08:05:16 42° S 08:22:10 10° ESE daylight
22 Mar - 10:04:06 10° WSW 10:18:34 41° SSW 10:35:43 10° SE daylight
22 Mar - 12:17:59 10° W 12:31:33 26° SW 12:45:21 10° SSE daylight
23 Mar - 04:26:36 10° SSE 04:32:08 15° SE 04:39:05 10° ESE visible
23 Mar - 06:32:17 10° SW 06:42:25 35° SSE 06:57:10 10° ESE daylight
23 Mar - 08:41:57 10° WSW 08:54:54 43° S 09:12:10 10° ESE daylight
23 Mar - 10:54:02 10° W 11:08:13 34° SSW 11:24:14 10° SSE daylight
23 Mar - 13:10:30 10° WSW 13:20:29 17° SW 13:30:27 10° SSW daylight
